Flag for Germany Weather past 2 weeks in Neubrandenburg, Mecklenburg-Western Pomerania, Germany

Now
63 °F

Fog.


Feels Like: 63 °F
Forecast: 54 / 75 °F
Wind: 5 mph from Northeast

Location: Greifswald

Current Time: Sep 19, 2014 at 8:16:30 PM

Latest Report: Sep 19, 2014 at 7:00 PM


Visibility: 3 mi

Pressure: 29.96 "Hg

Humidity: 86%

Dew point: 59 °F

Location of NeubrandenburgLocation

Historic Weather in Neubrandenburg — Graph

°F

Neubrandenburg temperature yesterday

Maximum temperature yesterday: 71 °F (at 4:00 PM)
Minimum temperature yesterday: 55 °F (at 5:00 AM)
Average temperature yesterday: 61 °F

Past Weeks' High & Low Weather Summary

 TemperatureHumidityPressure
High76 °F (Sep 6, 3:00 PM)100% (Sep 11, 7:00 AM)30.22 "Hg (Sep 11, 7:00 AM)
Low48 °F (Sep 11, 7:00 AM)47% (Sep 6, 2:00 PM)29.91 "Hg (Sep 7, 6:00 AM)
Average62 °F85%30.07 "Hg
* Reported Sep 4 7:00 PM — Sep 19 7:00 PM, Neubrandenburg, Weather by CustomWeather, © 2014

Note: Actual official high and low records may vary slightly from our data, if they occured in-between our weather recording intervals... More about our weather records

Advertising

Neubrandenburg weather history for previous 24 hours

 ConditionsComfort  
Time TempWeatherWind HumidityBarometerVisibility
7:00 PM
Sep 19
63 °FFog.5 mph86%29.96 "Hg3 mi
6:00 PM65 °FFog.6 mph83%29.95 "Hg4 mi
4:00 PM69 °FPassing clouds.7 mph75%29.96 "Hg6 mi
3:00 PM67 °FPassing clouds.7 mph75%29.96 "Hg6 mi
2:00 PM67 °FPassing clouds.6 mph73%29.96 "Hg6 mi
1:00 PM68 °FPassing clouds.3 mph71%29.97 "Hg6 mi
12:00 PM66 °FPassing clouds.3 mph73%29.97 "Hg6 mi
10:00 AM64 °FSunny.2 mph76%29.98 "Hg5 mi
9:00 AM58 °FFog.1 mph89%29.98 "Hg2 mi
8:00 AM52 °FFog.1 mph97%29.98 "Hg2 mi
7:00 AM51 °FFog.1 mph97%29.97 "Hg2 mi
6:00 AM51 °FFog.2 mph98%29.96 "Hg1 mi
5:00 AM52 °FFog.1 mph99%29.97 "Hg1 mi
4:00 AM53 °FFog.1 mph97%29.98 "Hg1 mi
3:00 AM54 °FFog.2 mph97%29.98 "Hg3 mi
2:00 AM54 °FClear.2 mph95%29.99 "Hg5 mi
1:00 AM56 °FClear.3 mph94%30.00 "Hg6 mi
12:00 AM57 °FClear.3 mph92%30.00 "Hg6 mi
11:00 PM
Sep 18
58 °FClear.2 mph94%30.01 "Hg5 mi
10:00 PM60 °FPassing clouds.3 mph88%30.01 "Hg7 mi
9:00 PM61 °FClear.5 mph87%30.01 "Hg7 mi
8:00 PM62 °FClear.5 mph80%30.01 "Hg9 mi
Weather by CustomWeather, © 2014

See weather overviewHow to use our weather pages